Location: Karlsruhe
(49.0131°N, 8.3874°E)
Time: 21:31:59
(UTC+01:00)

Amateur Radio Satellites - All Passes

Search period start: 24 November 2017 21:01
Search period end: 25 November 2017 21:01
Location: Karlsruhe, 49.0131°N, 8.3874°E

Satellite Date Start Highest point End Downlink Frequencies (MHz)
Time Altitude Azimuth
STRAND 1 24 Nov 21:02:03 21:06:47 39° 294° (WNW) 21:11:29 437.568
ESTCUBE 1 24 Nov 21:13:27 21:14:17 10° 53° (NE) 21:15:07 437.505/2401.250
NO-84 24 Nov 21:17:56 21:21:54 40° 221° (SW) 21:25:54 435.350 FM
DELFI C3 24 Nov 21:19:00 21:22:56 66° 258° (WSW) 21:26:57 145.870
EO-88 24 Nov 21:27:18 21:30:55 80° 75° (ENE) 21:34:34 145.990 - 145.960
Max Valier Satellite 24 Nov 21:37:57 21:41:30 54° 259° (W) 21:45:06 145.860
SO-50 24 Nov 21:39:44 21:44:10 68° 126° (SE) 21:48:41 436.795
LO-87 24 Nov 21:40:54 21:43:18 17° 64° (ENE) 21:45:43 145.935 - 145.965
ISS 24 Nov 21:43:42 21:46:59 83° 341° (NNW) 21:50:17 437.550
O/OREOS (USA 219) 24 Nov 21:44:53 21:49:06 35° 54° (NE) 21:53:16 437.305
FO-29 24 Nov 21:49:39 21:57:27 67° 291° (WNW) 22:04:48 435.910
PRISM 24 Nov 21:50:45 21:52:34 12° 88° (E) 21:54:22 437.425
UNISAT 6 24 Nov 21:59:31 22:03:37 42° 98° (E) 22:07:39 437.425
TIGRISAT 24 Nov 22:02:49 22:06:53 42° 98° (E) 22:10:54 435.000
nSIGHT-1 24 Nov 22:23:48 22:26:58 55° 352° (N) 22:30:09 .
RS-15 24 Nov 22:27:03 22:38:23 40° 347° (NNW) 22:49:25 29.354- 29.394
ESTCUBE 1 24 Nov 22:45:47 22:50:13 67° 73° (ENE) 22:54:43 437.505/2401.250
VELOX 1 24 Nov 22:51:14 22:54:01 17° 58° (ENE) 22:56:50 145.980
PCSat 24 Nov 23:12:07 23:16:35 27° 110° (ESE) 23:21:03 145.827
LO-87 24 Nov 23:12:59 23:16:25 42° 261° (W) 23:19:52 145.935 - 145.965
QB50P2 24 Nov 23:17:15 23:19:35 14° 89° (E) 23:21:53 145.880/145.840
SPROUT 24 Nov 23:17:27 23:21:23 37° 68° (ENE) 23:25:21 437.525
ISS 24 Nov 23:20:27 23:23:40 51° 2° (N) 23:26:52 437.550
SO-50 24 Nov 23:21:14 23:25:02 26° 327° (NNW) 23:28:53 436.795
PRISM 24 Nov 23:24:10 23:28:20 74° 287° (WNW) 23:32:28 437.425
O/OREOS (USA 219) 24 Nov 23:24:25 23:28:28 32° 254° (WSW) 23:32:28 437.305
DX 1 24 Nov 23:27:25 23:27:33 10° 53° (NE) 23:27:42 434.975-435.025
AIST 2D 24 Nov 23:27:48 23:31:11 43° 99° (E) 23:34:34 435.315
FO-29 24 Nov 23:35:53 23:41:05 20° 312° (NW) 23:46:10 435.910
UNISAT 6 24 Nov 23:36:44 23:40:06 23° 297° (WNW) 23:43:26 437.425
TIGRISAT 24 Nov 23:39:59 23:43:21 23° 297° (WNW) 23:46:42 435.000
50 SAT 24 Nov 23:54:23 23:55:43 12° 61° (ENE) 23:57:04 437.505
UKube-1 24 Nov 23:59:10 00:01:11 13° 56° (NE) 00:03:12 .
DUCHIFAT 1 24 Nov 23:59:36 00:03:10 26° 95° (E) 00:06:41 145.980
nSIGHT-1 25 Nov 00:00:15 00:03:27 61° 12° (NNE) 00:06:38 .
EO-79 25 Nov 00:11:34 00:15:36 44° 99° (E) 00:19:36 145.935-145.965
NANOSAT C BR1 25 Nov 00:12:11 00:16:09 40° 98° (E) 00:20:05 145.865
ESTCUBE 1 25 Nov 00:24:49 00:27:30 16° 271° (W) 00:30:12 437.505/2401.250
VELOX 1 25 Nov 00:25:31 00:29:57 71° 257° (WSW) 00:34:26 145.980
POLYITAN 1 25 Nov 00:27:55 00:32:06 66° 102° (ESE) 00:36:16 437.675
BUGSAT 1 25 Nov 00:37:17 00:39:57 17° 91° (E) 00:42:36 437.445
Oscar 19 25 Nov 00:40:32 00:42:57 13° 86° (E) 00:45:23 437.125/150
RS-15 25 Nov 00:43:06 00:54:34 44° 21° (NNE) 01:05:30 29.354- 29.394
QB50P2 25 Nov 00:51:37 00:55:48 65° 287° (WNW) 00:59:57 145.880/145.840
SPROUT 25 Nov 00:53:49 00:57:22 25° 266° (W) 01:00:57 437.525
PCSat 25 Nov 00:54:16 00:59:37 60° 310° (NW) 01:05:01 145.827
ISS 25 Nov 00:57:01 01:00:19 87° 204° (SSW) 01:03:35 437.550
DX 1 25 Nov 00:58:32 01:02:52 66° 72° (ENE) 01:07:14 434.975-435.025
ITUPSAT 1 25 Nov 01:01:08 01:01:54 10° 51° (NE) 01:02:40 437.325
AIST 2D 25 Nov 01:01:48 01:04:03 16° 296° (WNW) 01:06:19 435.315
PRISM 25 Nov 01:02:09 01:02:50 10° 305° (NW) 01:03:31 437.425
SO-50 25 Nov 01:05:11 01:07:03 12° 351° (N) 01:08:54 436.795
50 SAT 25 Nov 01:24:13 01:27:23 52° 260° (W) 01:30:34 437.505
UKube-1 25 Nov 01:32:12 01:36:33 90° 306° (NW) 01:40:54 .
DUCHIFAT 1 25 Nov 01:35:05 01:38:52 34° 293° (WNW) 01:42:37 145.980
Gurwin Techsat 1B 25 Nov 01:35:35 01:40:12 29° 94° (E) 01:44:49 435.225
nSIGHT-1 25 Nov 01:36:35 01:39:38 41° 211° (SSW) 01:42:40 .
BEESAT 3 25 Nov 01:40:31 01:43:43 24° 116° (ESE) 01:46:58 437.485
EO-79 25 Nov 01:47:53 01:51:06 22° 297° (WNW) 01:54:19 145.935-145.965
NANOSAT C BR1 25 Nov 01:48:19 01:51:39 23° 296° (WNW) 01:54:58 145.865
AO-91 25 Nov 01:58:18 02:02:51 60° 100° (E) 02:06:51 145.960
POLYITAN 1 25 Nov 02:04:51 02:07:25 16° 300° (WNW) 02:09:58 437.675
MOZHAYETS 4 25 Nov 02:09:06 02:13:25 43° 69° (ENE) 02:17:44
BUGSAT 1 25 Nov 02:11:42 02:15:37 50° 289° (WNW) 02:19:29 437.445
AO-7 25 Nov 02:15:17 02:19:39 15° 84° (E) 02:24:00 .
Oscar 19 25 Nov 02:17:50 02:23:02 86° 105° (ESE) 02:28:14 437.125/150
BEESAT 25 Nov 02:21:46 02:26:20 47° 68° (ENE) 02:30:56 436.000
CUBESAT XI-V 25 Nov 02:32:17 02:35:43 21° 61° (ENE) 02:39:11 437.345
ISS 25 Nov 02:33:58 02:36:27 20° 219° (SW) 02:38:55 437.550
ITUPSAT 1 25 Nov 02:34:04 02:38:46 60° 71° (ENE) 02:43:29 437.325
DX 1 25 Nov 02:36:53 02:39:30 15° 270° (W) 02:42:08 434.975-435.025
PCSat 25 Nov 02:40:24 02:44:09 19° 333° (NNW) 02:47:55 145.827
ITAMSAT 1 25 Nov 02:42:58 02:43:53 10° 84° (E) 02:44:46 435.822/435.867
SO-50 25 Nov 02:47:02 02:49:27 14° 16° (NNE) 02:51:53 436.795
M-CUBED/EXP-1 PRIME 25 Nov 02:54:49 02:58:50 29° 100° (E) 03:02:53 437.505
RS-15 25 Nov 02:56:41 03:08:46 87° 51° (NE) 03:20:09 29.354- 29.394
AO-85 25 Nov 02:57:55 03:00:23 16° 112° (ESE) 03:02:56 145.980
BEESAT 2 25 Nov 03:00:54 03:04:44 44° 122° (ESE) 03:08:37 435.950
UKube-1 25 Nov 03:12:08 03:13:13 11° 273° (W) 03:14:17 .
Gurwin Techsat 1B 25 Nov 03:15:16 03:20:21 46° 293° (WNW) 03:25:23 435.225
BEESAT 3 25 Nov 03:17:10 03:21:02 47° 315° (NW) 03:24:56 437.485
YUBILEINY 25 Nov 03:25:16 03:28:47 13° 68° (ENE) 03:32:20 435.215
KKS-1 25 Nov 03:32:51 03:36:13 21° 61° (ENE) 03:39:35 437.445
AO-91 25 Nov 03:35:38 03:38:45 18° 302° (WNW) 03:41:41 145.960
STARS 25 Nov 03:46:54 03:49:01 13° 56° (NE) 03:51:08 437.465
MOZHAYETS 4 25 Nov 03:47:03 03:50:45 24° 267° (W) 03:54:29
Oscar 19 25 Nov 03:58:25 04:01:43 17° 304° (NW) 04:05:00 437.125/150
BEESAT 25 Nov 04:00:28 04:04:20 24° 267° (W) 04:08:12 436.000
AO-7 25 Nov 04:05:44 04:14:04 66° 105° (ESE) 04:22:22 .
CUBESAT XI-V 25 Nov 04:08:12 04:12:43 55° 260° (W) 04:17:18 437.345
ITUPSAT 1 25 Nov 04:13:34 04:16:59 19° 269° (W) 04:20:25 437.325
ITAMSAT 1 25 Nov 04:19:04 04:24:18 71° 103° (ESE) 04:29:29 435.822/435.867
SO-50 25 Nov 04:26:56 04:31:12 36° 39° (NE) 04:35:31 436.795
PCSat 25 Nov 04:28:10 04:29:51 11° 359° (N) 04:31:33 145.827
M-CUBED/EXP-1 PRIME 25 Nov 04:28:59 04:33:16 41° 297° (WNW) 04:37:36 437.505
AO-85 25 Nov 04:36:21 04:40:15 64° 313° (NW) 04:44:25 145.980
BEESAT 2 25 Nov 04:39:02 04:42:36 29° 321° (NW) 04:46:12 435.950
DOVE 4 25 Nov 04:55:46 05:00:30 35° 94° (E) 05:05:00 437.250
BEESAT 3 25 Nov 04:57:31 04:59:31 13° 337° (NNW) 05:01:30 437.485
STRAND 1 25 Nov 05:06:59 05:09:20 13° 52° (NE) 05:11:40 437.568
KKS-1 25 Nov 05:08:02 05:12:25 53° 259° (W) 05:16:51 437.445
RS-15 25 Nov 05:10:08 05:19:49 32° 256° (WSW) 05:29:07 29.354- 29.394
YUBILEINY 25 Nov 05:15:03 05:23:34 59° 91° (E) 05:32:11 435.215
STARS 25 Nov 05:20:15 05:24:41 89° 69° (ENE) 05:29:09 437.465
XW-2C 25 Nov 05:35:10 05:37:28 15° 90° (E) 05:39:47 145.795 - 145.815
XW-2F 25 Nov 05:41:46 05:44:16 17° 91° (E) 05:46:47 145.980 - 146.000
LilacSat-2 25 Nov 05:41:59 05:44:50 19° 92° (E) 05:47:40 437.200
AO-7 25 Nov 05:59:00 06:06:24 38° 307° (NW) 06:13:51 .
ITAMSAT 1 25 Nov 05:59:27 06:03:16 21° 303° (WNW) 06:07:03 435.822/435.867
KAITUO 1B 25 Nov 06:01:59 06:04:57 21° 93° (E) 06:07:54 145.475/437.950
SO-50 25 Nov 06:07:22 06:11:46 44° 239° (WSW) 06:16:13 436.795
PCSat 25 Nov 06:11:58 06:15:36 18° 26° (NNE) 06:19:13 145.827
AO-85 25 Nov 06:18:53 06:21:31 16° 336° (NNW) 06:24:14 145.980
BEESAT 2 25 Nov 06:20:38 06:21:36 11° 344° (NNW) 06:22:34 435.950
CUTE-I 25 Nov 06:20:42 06:25:43 39° 97° (E) 06:30:41 437.470
FO-29 25 Nov 06:21:50 06:27:24 25° 52° (NE) 06:33:18 435.910
XW-2D 25 Nov 06:27:16 06:31:02 57° 100° (E) 06:34:48 145.860 - 145.880
DOVE 4 25 Nov 06:33:26 06:38:09 36° 294° (WNW) 06:42:39 437.250
NUDT-PHONESAT 25 Nov 06:38:45 06:42:23 51° 100° (E) 06:46:02 437.300
XW-2B 25 Nov 06:42:14 06:46:04 81° 103° (ESE) 06:49:53 145.730 - 145.750
STRAND 1 25 Nov 06:42:30 06:47:37 70° 72° (ENE) 06:52:46 437.568
STARS 25 Nov 07:00:12 07:01:40 11° 273° (W) 07:03:08 437.465
XW-2C 25 Nov 07:08:14 07:11:56 50° 288° (WNW) 07:15:39 145.795 - 145.815
CUTE 1.7 + AOD 2 25 Nov 07:10:13 07:14:17 41° 98° (E) 07:18:21 437.475
YUBILEINY 25 Nov 07:12:48 07:20:50 38° 294° (WNW) 07:28:58 435.215
CUBEBUG 2 25 Nov 07:14:25 07:17:58 27° 94° (E) 07:21:30 437.445
XW-2F 25 Nov 07:14:57 07:18:36 45° 289° (WNW) 07:22:15 145.980 - 146.000
LilacSat-2 25 Nov 07:15:39 07:19:15 40° 290° (WNW) 07:22:53 437.200
HO-68 25 Nov 07:22:53 07:29:56 54° 101° (E) 07:36:56 435.675
AAUSAT CUBESAT 2 25 Nov 07:26:51 07:29:48 18° 91° (E) 07:32:44 437.432
SEEDS 25 Nov 07:32:21 07:36:26 43° 98° (E) 07:40:30 437.485
KAITUO 1B 25 Nov 07:35:34 07:39:01 34° 291° (WNW) 07:42:28 145.475/437.950
ZACube-1 25 Nov 07:43:23 07:46:13 18° 91° (E) 07:49:03 437.345
AO-7 25 Nov 07:53:33 07:56:51 13° 331° (NNW) 08:00:10 .
PCSat 25 Nov 07:54:51 08:00:13 55° 49° (NE) 08:05:32 145.827
CUTE-I 25 Nov 08:00:52 08:05:44 36° 296° (WNW) 08:10:34 437.470
UWE-3 25 Nov 08:01:57 08:05:59 47° 99° (E) 08:10:00 435.000/436.395/437.385
XW-2D 25 Nov 08:02:33 08:04:48 15° 298° (WNW) 08:07:03 145.860 - 145.880
AO-85 25 Nov 08:03:23 08:03:45 10° 1° (N) 08:04:06 145.980
FO-29 25 Nov 08:04:24 08:11:24 89° 78° (ENE) 08:19:10 435.910
NUDT-PHONESAT 25 Nov 08:13:35 08:15:52 16° 298° (WNW) 08:18:09 437.300
BEESAT 3 25 Nov 08:15:53 08:18:05 14° 25° (NNE) 08:20:16 437.485
XW-2B 25 Nov 08:18:20 08:19:40 12° 301° (WNW) 08:21:00 145.730 - 145.750
STRAND 1 25 Nov 08:23:48 08:27:20 18° 271° (W) 08:30:51 437.568
XW-2A 25 Nov 08:27:54 08:31:17 89° 285° (WNW) 08:34:40 145.665 - 145.685
AO-73 25 Nov 08:30:53 08:34:54 46° 99° (E) 08:38:56 145.935
Oscar 11 25 Nov 08:42:24 08:46:33 42° 98° (E) 08:50:40 .
PRISM 25 Nov 08:43:20 08:46:00 17° 60° (ENE) 08:48:42 437.425
CUTE 1.7 + AOD 2 25 Nov 08:46:29 08:49:55 24° 296° (WNW) 08:53:21 437.475
CUBEBUG 2 25 Nov 08:50:54 08:54:39 32° 293° (WNW) 08:58:21 437.445
DELFI C3 25 Nov 08:53:18 08:55:00 12° 88° (E) 08:56:40 145.870
AAUSAT CUBESAT 2 25 Nov 09:01:28 09:05:32 50° 289° (WNW) 09:09:34 437.432
UNISAT 6 25 Nov 09:01:40 09:06:08 62° 72° (ENE) 09:10:30 437.425
TIGRISAT 25 Nov 09:04:48 09:09:15 61° 72° (ENE) 09:13:37 435.000
Max Valier Satellite 25 Nov 09:05:48 09:06:32 10° 88° (E) 09:07:17 145.860
SEEDS 25 Nov 09:08:33 09:11:52 23° 296° (WNW) 09:15:11 437.485
HO-68 25 Nov 09:10:57 09:17:28 38° 301° (WNW) 09:23:56 435.675
ZACube-1 25 Nov 09:18:46 09:22:48 51° 289° (WNW) 09:26:51 437.345
YUBILEINY 25 Nov 09:20:51 09:21:02 10° 323° (NW) 09:21:14 435.215
BEESAT 2 25 Nov 09:37:23 09:40:27 20° 32° (NNE) 09:43:30 435.950
PCSat 25 Nov 09:38:43 09:43:21 29° 249° (WSW) 09:47:57 145.827
UWE-3 25 Nov 09:39:08 09:42:09 20° 297° (WNW) 09:45:10 435.000/436.395/437.385
AO-85 25 Nov 09:43:02 09:45:58 17° 25° (NNE) 09:49:02 145.980
POLYITAN 1 25 Nov 09:51:37 09:52:59 11° 56° (NE) 09:54:19 437.675
FO-29 25 Nov 09:52:17 09:57:30 22° 276° (W) 10:03:05 435.910
BEESAT 3 25 Nov 09:52:34 09:56:28 54° 46° (NE) 10:00:19 437.485
AIST 2D 25 Nov 10:05:40 10:08:42 29° 69° (ENE) 10:11:46 435.315
AO-73 25 Nov 10:07:47 10:10:52 21° 297° (WNW) 10:13:58 145.935
QB50P2 25 Nov 10:13:20 10:16:22 19° 62° (ENE) 10:19:24 145.880/145.840
PRISM 25 Nov 10:16:44 10:20:50 61° 258° (WSW) 10:24:59 437.425
FALCONSAT 3 25 Nov 10:17:34 10:17:44 10° 180° (S) 10:17:54 435.103
Oscar 11 25 Nov 10:18:59 10:22:28 24° 296° (WNW) 10:25:56 .
EO-88 25 Nov 10:25:10 10:28:48 58° 101° (ESE) 10:32:24 145.990 - 145.960
DELFI C3 25 Nov 10:26:12 10:30:13 70° 286° (WNW) 10:34:10 145.870
ESTCUBE 1 25 Nov 10:36:35 10:37:39 11° 86° (E) 10:38:43 437.505/2401.250
Max Valier Satellite 25 Nov 10:37:08 10:40:49 71° 286° (WNW) 10:44:28 145.860
LO-87 25 Nov 10:37:21 10:38:26 11° 89° (E) 10:39:31 145.935 - 145.965
UNISAT 6 25 Nov 10:40:20 10:43:13 17° 270° (W) 10:46:05 437.425
TIGRISAT 25 Nov 10:43:24 10:46:19 17° 270° (W) 10:49:12 435.000
DUCHIFAT 1 25 Nov 10:54:48 10:58:35 33° 67° (ENE) 11:02:22 145.980
HO-68 25 Nov 11:01:40 11:03:15 11° 324° (NW) 11:04:51 435.675
EO-79 25 Nov 11:07:19 11:11:28 56° 71° (ENE) 11:15:36 145.935-145.965
NANOSAT C BR1 25 Nov 11:07:36 11:11:41 50° 71° (ENE) 11:15:46 145.865
BEESAT 2 25 Nov 11:14:36 11:18:41 81° 231° (SW) 11:22:40 435.950
AO-85 25 Nov 11:22:44 11:27:16 57° 47° (NE) 11:32:08 145.980
POLYITAN 1 25 Nov 11:23:49 11:28:03 82° 73° (ENE) 11:32:17 437.675
AO-91 25 Nov 11:23:58 11:27:06 16° 56° (ENE) 11:30:10 145.960
Gurwin Techsat 1B 25 Nov 11:24:16 11:26:43 13° 51° (NE) 11:29:09 435.225
BUGSAT 1 25 Nov 11:30:24 11:33:38 22° 63° (ENE) 11:36:50 437.445
BEESAT 3 25 Nov 11:30:47 11:33:40 19° 246° (WSW) 11:36:29 437.485
AO-7 25 Nov 11:31:52 11:34:47 12° 27° (NNE) 11:37:41 .
AIST 2D 25 Nov 11:39:11 11:41:54 21° 267° (W) 11:44:39 435.315
QB50P2 25 Nov 11:47:40 11:51:49 52° 260° (W) 11:55:58 145.880/145.840
EO-88 25 Nov 12:00:04 12:02:00 14° 299° (WNW) 12:03:56 145.990 - 145.960
Oscar 19 25 Nov 12:00:27 12:04:52 30° 62° (ENE) 12:09:17 437.125/150
O/OREOS (USA 219) 25 Nov 12:02:32 12:05:35 18° 100° (E) 12:08:40 437.305
LO-87 25 Nov 12:08:44 12:12:14 61° 287° (WNW) 12:15:43 145.935 - 145.965
ESTCUBE 1 25 Nov 12:10:36 12:15:10 84° 106° (ESE) 12:19:43 437.505/2401.250
VELOX 1 25 Nov 12:12:21 12:15:12 17° 90° (E) 12:18:03 145.980
DUCHIFAT 1 25 Nov 12:30:39 12:34:16 27° 265° (W) 12:37:53 145.980
SPROUT 25 Nov 12:34:19 12:38:20 39° 98° (E) 12:42:19 437.525
NANOSAT C BR1 25 Nov 12:44:41 12:47:40 18° 269° (W) 12:50:39 145.865
EO-79 25 Nov 12:44:47 12:47:34 17° 270° (W) 12:50:20 145.935-145.965
BEESAT 2 25 Nov 12:55:01 12:55:40 10° 251° (WSW) 12:56:19 435.950
AO-91 25 Nov 12:57:22 13:02:46 80° 75° (ENE) 13:08:05 145.960
Gurwin Techsat 1B 25 Nov 13:00:27 13:05:43 68° 71° (ENE) 13:11:02 435.225
POLYITAN 1 25 Nov 13:02:55 13:04:23 12° 273° (W) 13:05:52 437.675
AO-85 25 Nov 13:03:34 13:07:28 26° 244° (WSW) 13:11:35 145.980
BUGSAT 1 25 Nov 13:04:46 13:08:45 43° 261° (W) 13:12:43 437.445
UKube-1 25 Nov 13:17:19 13:18:36 11° 87° (E) 13:19:52 .
AO-7 25 Nov 13:17:53 13:25:07 35° 52° (NE) 13:32:24 .
Oscar 19 25 Nov 13:39:09 13:44:02 44° 262° (W) 13:48:56 437.125/150
O/OREOS (USA 219) 25 Nov 13:39:57 13:44:31 63° 300° (WNW) 13:49:07 437.305
M-CUBED/EXP-1 PRIME 25 Nov 13:43:55 13:47:37 60° 66° (ENE) 13:51:39 437.505
VELOX 1 25 Nov 13:47:38 13:52:04 62° 288° (WNW) 13:56:27 145.980
ESTCUBE 1 25 Nov 13:48:51 13:51:21 15° 303° (WNW) 13:53:51 437.505/2401.250
ITAMSAT 1 25 Nov 14:02:51 14:07:12 27° 61° (ENE) 14:11:33 435.822/435.867
50 SAT 25 Nov 14:09:05 14:12:19 66° 103° (ESE) 14:15:29 437.505
SPROUT 25 Nov 14:10:36 14:14:02 24° 296° (WNW) 14:17:27 437.525
NO-84 25 Nov 14:12:13 14:15:31 34° 137° (SE) 14:19:04 435.350 FM
DX 1 25 Nov 14:18:32 14:22:56 69° 103° (ESE) 14:27:17 434.975-435.025
DOVE 4 25 Nov 14:31:26 14:32:33 11° 50° (NE) 14:33:40 437.250
ITUPSAT 1 25 Nov 14:32:55 14:34:07 11° 86° (E) 14:35:18 437.325
AO-91 25 Nov 14:36:09 14:39:44 18° 272° (W) 14:43:16 145.960
Gurwin Techsat 1B 25 Nov 14:42:21 14:46:10 20° 270° (W) 14:50:01 435.225
UKube-1 25 Nov 14:50:53 14:55:15 88° 285° (WNW) 14:59:34 .
AO-7 25 Nov 15:09:07 15:17:22 70° 254° (WSW) 15:25:43 .
YUBILEINY 25 Nov 15:20:02 15:28:08 37° 65° (ENE) 15:36:09 435.215
M-CUBED/EXP-1 PRIME 25 Nov 15:20:24 15:22:30 14° 266° (W) 15:24:41 437.505
O/OREOS (USA 219) 25 Nov 15:22:47 15:24:54 13° 321° (NW) 15:27:01 437.305
MOZHAYETS 4 25 Nov 15:36:34 15:41:06 58° 101° (E) 15:45:37
ITAMSAT 1 25 Nov 15:41:18 15:46:23 52° 260° (W) 15:51:31 435.822/435.867
NO-84 25 Nov 15:48:59 15:52:42 57° 338° (NNW) 15:56:43 435.350 FM
BEESAT 25 Nov 15:55:02 15:59:47 63° 102° (ESE) 16:04:29 436.000
DX 1 25 Nov 15:55:50 15:58:36 17° 302° (WNW) 16:01:22 434.975-435.025
CUBESAT XI-V 25 Nov 16:00:39 16:04:40 27° 94° (E) 16:08:41 437.345
DOVE 4 25 Nov 16:04:02 16:09:04 54° 70° (ENE) 16:14:15 437.250
ITUPSAT 1 25 Nov 16:07:55 16:12:43 81° 105° (ESE) 16:17:28 437.325
CUTE-I 25 Nov 16:09:03 16:12:28 17° 55° (NE) 16:15:54 437.470
HO-68 25 Nov 16:11:49 16:16:00 17° 44° (NE) 16:20:10 435.675
XW-2C 25 Nov 16:20:43 16:22:45 14° 61° (ENE) 16:24:48 145.795 - 145.815
XW-2F 25 Nov 16:26:46 16:28:58 15° 62° (ENE) 16:31:12 145.980 - 146.000
LilacSat-2 25 Nov 16:27:58 16:30:34 18° 63° (ENE) 16:33:10 437.200
UKube-1 25 Nov 16:28:41 16:30:35 13° 304° (NW) 16:32:30 .
KAITUO 1B 25 Nov 16:45:55 16:48:32 19° 64° (ENE) 16:51:11 145.475/437.950
KKS-1 25 Nov 16:55:16 16:58:43 21° 92° (E) 17:02:08 437.445
AO-7 25 Nov 17:06:58 17:11:42 16° 275° (W) 17:16:28 .
STARS 25 Nov 17:07:25 17:09:05 12° 87° (E) 17:10:45 437.465
XW-2D 25 Nov 17:11:57 17:15:32 47° 72° (ENE) 17:19:11 145.860 - 145.880
MOZHAYETS 4 25 Nov 17:14:33 17:17:52 20° 299° (WNW) 17:21:12
YUBILEINY 25 Nov 17:16:47 17:25:27 61° 269° (W) 17:34:04 435.215
NUDT-PHONESAT 25 Nov 17:21:14 17:24:40 40° 70° (ENE) 17:28:08 437.300
RS-15 25 Nov 17:24:52 17:35:36 38° 107° (ESE) 17:46:15 29.354- 29.394
XW-2B 25 Nov 17:26:50 17:30:32 68° 73° (ENE) 17:34:17 145.730 - 145.750
NO-84 25 Nov 17:26:57 17:30:35 34° 359° (N) 17:34:27 435.350 FM
BEESAT 25 Nov 17:33:41 17:37:07 20° 301° (WNW) 17:40:33 436.000
CUBESAT XI-V 25 Nov 17:37:45 17:42:09 40° 292° (WNW) 17:46:33 437.345
DOVE 4 25 Nov 17:42:47 17:47:02 25° 269° (W) 17:51:23 437.250
CUTE-I 25 Nov 17:46:24 17:51:48 89° 74° (ENE) 17:57:14 437.470
ITUPSAT 1 25 Nov 17:47:00 17:49:57 17° 303° (WNW) 17:52:53 437.325
XW-2C 25 Nov 17:52:48 17:56:29 59° 259° (W) 18:00:13 145.795 - 145.815
HO-68 25 Nov 17:55:19 18:02:22 60° 66° (ENE) 18:09:26 435.675
XW-2F 25 Nov 17:59:03 18:02:41 54° 260° (W) 18:06:22 145.980 - 146.000
LilacSat-2 25 Nov 18:00:55 18:04:32 44° 261° (W) 18:08:11 437.200
CUTE 1.7 + AOD 2 25 Nov 18:06:22 18:10:24 47° 71° (ENE) 18:14:29 437.475
CUBEBUG 2 25 Nov 18:15:47 18:19:57 38° 69° (ENE) 18:23:59 437.445
KAITUO 1B 25 Nov 18:18:46 18:22:15 40° 262° (W) 18:25:48 145.475/437.950
AAUSAT CUBESAT 2 25 Nov 18:20:39 18:23:46 21° 63° (ENE) 18:26:54 437.432
SEEDS 25 Nov 18:27:27 18:31:28 49° 71° (ENE) 18:35:33 437.485
KKS-1 25 Nov 18:31:13 18:35:31 47° 291° (WNW) 18:39:47 437.445
STARS 25 Nov 18:41:37 18:46:02 84° 289° (WNW) 18:50:24 437.465
ZACube-1 25 Nov 18:42:48 18:46:10 23° 64° (ENE) 18:49:31 437.345
XW-2D 25 Nov 18:47:42 18:49:59 16° 270° (W) 18:52:18 145.860 - 145.880
STRAND 1 25 Nov 18:49:54 18:53:17 18° 89° (E) 18:56:39 437.568
NUDT-PHONESAT 25 Nov 18:56:14 18:58:42 17° 268° (W) 19:01:12 437.300
UWE-3 25 Nov 19:02:18 19:06:37 64° 73° (ENE) 19:10:51 435.000/436.395/437.385
XW-2A 25 Nov 19:02:20 19:05:34 54° 73° (ENE) 19:08:50 145.665 - 145.685
XW-2B 25 Nov 19:03:58 19:05:10 11° 272° (W) 19:06:22 145.730 - 145.750
NO-84 25 Nov 19:04:32 19:08:33 50° 19° (NNE) 19:12:42 435.350 FM
FO-29 25 Nov 19:12:05 19:15:51 14° 78° (ENE) 19:19:31 435.910
YUBILEINY 25 Nov 19:16:25 19:20:18 14° 291° (WNW) 19:24:10 435.215
ISS 25 Nov 19:16:40 19:18:38 15° 138° (SE) 19:20:36 437.550
CUTE-I 25 Nov 19:29:37 19:32:35 15° 273° (W) 19:35:35 437.470
AO-73 25 Nov 19:29:50 19:34:00 58° 72° (ENE) 19:38:07 145.935
RS-15 25 Nov 19:34:43 19:47:08 81° 312° (NW) 19:59:23 29.354- 29.394
Oscar 11 25 Nov 19:40:42 19:44:52 52° 71° (ENE) 19:49:05 .
DELFI C3 25 Nov 19:42:25 19:44:26 14° 59° (ENE) 19:46:25 145.870
CUTE 1.7 + AOD 2 25 Nov 19:43:26 19:46:30 19° 269° (W) 19:49:35 437.475
HO-68 25 Nov 19:44:08 19:50:29 33° 266° (W) 19:56:53 435.675
nSIGHT-1 25 Nov 19:51:58 19:54:51 31° 146° (SE) 19:57:46 .
CUBEBUG 2 25 Nov 19:52:53 19:56:39 26° 266° (W) 20:00:21 437.445
AAUSAT CUBESAT 2 25 Nov 19:54:57 19:58:55 45° 261° (W) 20:02:57 437.432
SEEDS 25 Nov 20:04:29 20:07:26 19° 269° (W) 20:10:25 437.485
ZACube-1 25 Nov 20:18:15 20:22:16 40° 262° (W) 20:26:15 437.345
STARS 25 Nov 20:19:49 20:21:40 12° 305° (NW) 20:23:30 437.465
SO-50 25 Nov 20:25:54 20:29:21 22° 114° (ESE) 20:32:49 436.795
STRAND 1 25 Nov 20:27:54 20:33:01 73° 288° (WNW) 20:38:06 437.568
O/OREOS (USA 219) 25 Nov 20:28:46 20:30:59 13° 40° (NE) 20:33:12 437.305
XW-2A 25 Nov 20:37:40 20:38:36 11° 271° (W) 20:39:33 145.665 - 145.685
UWE-3 25 Nov 20:40:54 20:43:29 15° 271° (W) 20:46:01 435.000/436.395/437.385
NO-84 25 Nov 20:41:54 20:45:59 50° 218° (SW) 20:50:07 435.350 FM
ISS 25 Nov 20:51:23 20:54:38 69° 156° (SSE) 20:57:55 437.550
